STARLINK-30243 (57648 NORAD) Tracking and Keplerian Element Data

This shows tracking and keplerian element data for the satellite.

Feedback or suggestion? Click here.




ElementValue
Catalog57648
NameSTARLINK-30243
Epoch Orbit279
Epoch Day238.91667824
Epoch Year2023
RAAN95.9245
Inclination43.0012
Eccentricity2.44E-05
Argument of Perigee231.2542
Mean Anonmoly194.063
Mean Motion15.86086811
Decay Rate-0.00891404
L11 57648U 23122S 23238.91667824 -.00891404 00000+0 -38532-2 0 9991
L22 57648 43.0012 95.9245 0000244 231.2542 194.0630 15.86086811 2790



Live tracking and technical data element details for STARLINK-30243 (NORAD 57648). STARLINK-30243 can be tracked NOW for your location showing map with azimuth and elevation plus other details from your city location.







IsCatalogInMostPopularTable: catalog: 57648, numindb: 7
Update: records affected: 1



GetName: 57648 STARLINK-30243

Hit Count: updated at: Tue, 26 Sep 2023 12:33:25 GMT